Location: Stull Observatory
(42.2506°N, 77.7903°W)
Time: 21:27:39
(UTC-04:00)

ISS - All Passes

Search period start: 29 April 2016 00:00
Search period end: 09 May 2016 00:00
Orbit: 402 x 405 km, 51.6° (Epoch: 29 April)

Date Brightness Start Highest point End Pass type
(mag) Time Alt. Az. Time Alt. Az. Time Alt. Az.
29 Apr - 09:11:52 10° SW 09:15:01 46° SE 09:18:10 10° ENE daylight
29 Apr - 10:48:42 10° W 10:51:36 28° NNW 10:54:30 10° NE daylight
29 Apr - 12:26:44 10° NW 12:28:50 16° N 12:30:56 10° NE daylight
29 Apr - 14:03:26 10° NW 14:06:09 23° NNE 14:08:50 10° ENE daylight
29 Apr - 15:39:38 10° WNW 15:42:53 73° SW 15:46:08 10° SE daylight
30 Apr - 08:19:58 10° SSW 08:22:41 24° SE 08:25:25 10° ENE daylight
30 Apr - 09:55:52 10° WSW 09:59:00 43° NNW 10:02:10 10° NE daylight
30 Apr - 11:33:51 10° NW 11:36:06 17° N 11:38:21 10° NE daylight
30 Apr - 13:11:03 10° NW 13:13:28 19° NNE 13:15:52 10° ENE daylight
30 Apr - 14:47:10 10° NW 14:50:25 61° NNE 14:53:39 10° ESE daylight
30 Apr - 16:24:26 10° W 16:26:34 16° SW 16:28:42 10° S daylight
01 May - 07:28:48 10° SSE 07:30:25 13° SE 07:32:04 10° E daylight
01 May - 09:03:13 10° WSW 09:06:29 74° NNW 09:09:46 10° NE daylight
01 May - 10:40:52 10° WNW 10:43:22 20° NNW 10:45:54 10° NE daylight
01 May - 12:18:33 10° NW 12:20:44 16° N 12:22:54 10° NE daylight
01 May - 13:54:48 10° NW 13:57:52 37° NNE 14:00:57 10° E daylight
01 May - 15:31:21 10° WNW 15:34:17 30° SW 15:37:11 10° SSE daylight
02 May - 08:10:50 10° SW 08:14:02 58° SE 08:17:15 10° ENE daylight
02 May - 09:47:53 10° W 09:50:42 26° NNW 09:53:30 10° NE daylight
02 May - 11:25:53 10° NW 11:27:58 16° N 11:30:04 10° NE daylight
02 May - 13:02:26 10° NW 13:05:15 26° NNE 13:08:03 10° E daylight
02 May - 14:38:41 10° WNW 14:41:55 59° SW 14:45:07 10° SE daylight
03 May - 07:18:45 10° SSW 07:21:39 30° SE 07:24:33 10° ENE daylight
03 May - 08:55:00 10° W 08:58:03 37° NNW 09:01:08 10° NE daylight
03 May - 10:33:01 10° NW 10:35:12 16° N 10:37:23 10° NE daylight
03 May - 12:10:03 10° NW 12:12:33 20° NNE 12:15:04 10° ENE daylight
03 May - 13:46:10 10° NW 13:49:27 74° NE 13:52:42 10° ESE daylight
03 May - 15:23:51 10° W 15:25:30 13° SW 15:27:09 10° SSW daylight
04 May - 06:27:13 10° S 06:29:21 16° SE 06:31:28 10° E daylight
04 May - 08:02:15 10° WSW 08:05:29 61° NNW 08:08:44 10° NE daylight
04 May - 09:40:02 10° WNW 09:42:26 19° NNW 09:44:51 10° NE daylight
04 May - 11:17:34 10° NW 11:19:48 17° N 11:22:03 10° NE daylight
04 May - 12:53:45 10° NW 12:56:54 42° NNE 13:00:01 10° E daylight
04 May - 14:30:29 10° WNW 14:33:13 25° SW 14:35:56 10° SSE daylight
05 May - 07:09:44 10° SW 07:12:59 73° SE 07:16:14 10° ENE daylight
05 May - 08:47:00 10° WNW 08:49:43 23° NNW 08:52:25 10° NE daylight
05 May - 10:24:55 10° NW 10:27:01 16° N 10:29:07 10° NE daylight
05 May - 12:01:22 10° NW 12:04:15 28° NNE 12:07:09 10° E daylight
05 May - 13:37:41 10° WNW 13:40:50 47° SW 13:43:58 10° SE daylight
06 May - 06:17:30 10° SSW 06:20:33 37° SE 06:23:35 10° ENE daylight
06 May - 07:54:02 10° W 07:57:02 32° NNW 08:00:02 10° NE daylight
06 May - 09:32:05 10° NW 09:34:13 16° N 09:36:21 10° NE daylight
06 May - 11:08:57 10° NW 11:11:33 21° NNE 11:14:09 10° ENE daylight
06 May - 12:45:06 10° NW 12:48:22 89° NNW 12:51:38 10° SE daylight
06 May - 14:23:32 10° WSW 14:24:21 11° SW 14:25:09 10° SW daylight
07 May - 05:25:43 10° S 05:28:11 20° SE 05:30:39 10° E visible
07 May - 07:01:12 10° WSW 07:04:24 51° NNW 07:07:37 10° NE daylight
07 May - 08:39:06 10° NW 08:41:25 18° N 08:43:45 10° NE daylight
07 May - 10:16:28 10° NW 10:18:47 18° N 10:21:06 10° NE daylight
07 May - 11:52:37 10° NW 11:55:49 50° NNE 11:59:00 10° ESE daylight
07 May - 13:29:34 10° W 13:32:03 20° SW 13:34:32 10° S daylight
08 May - 04:35:12 10° SE 04:35:53 10° SE 04:36:34 10° ESE visible
08 May - 06:08:34 10° SW 06:11:50 89° SSE 06:15:07 10° NE daylight
08 May - 07:46:03 10° WNW 07:48:39 21° NNW 07:51:16 10° NE daylight
08 May - 09:23:51 10° NW 09:25:59 16° N 09:28:07 10° NE daylight
08 May - 11:00:11 10° NW 11:03:10 32° NNE 11:06:09 10° E daylight
08 May - 12:36:37 10° WNW 12:39:40 38° SW 12:42:43 10° SSE daylight
